Regional Weather Roundup
Issued by NWS

Home | Current Version | Previous Version | Text Only | Print | Product List | Glossary Off
Versions: 1 2 3 4 5 6 7 8 9 10 11 12 13 14 15 16 17 18 19 20 21 22 23 24 25 26 27 28 29 30 31 32 33 34 35 36 37 38 39 40 41 42 43 44 45 46 47 48 49 50

000
ASUS45 KBOU 291807
RWRCO

WEATHER ROUNDUP FOR COLORADO
NATIONAL WEATHER SERVICE DENVER/BOULDER CO
1200 PM MDT TUE JUL 29 2014

NOTE: "FAIR" INDICATES FEW OR NO CLOUDS BELOW 12000 FEET WITH NO
SIGNIFICANT WEATHER AND/OR OBSTRUCTIONS TO VISIBILITY.

COZ001>005-013-030-031-291900-
...NORTHWEST COLORADO...

CITY           SKY/WX    TMP DP  RH WIND       PRES   REMARKS
CRAIG          CLOUDY    59  59 100 SW13      30.35S
HAYDEN         CLOUDY    61  55  82 W7        30.36S
MEEKER         CLOUDY    64  56  75 E7        30.36F
MOUNT WERNER   NOT AVBL
STEAMBOAT SPGS CLOUDY    69  51  52 SW7       30.35F
WALDEN         PTSUNNY   70  43  37 SE7       30.38F
$$

COZ006>008-011-291900-
...WEST CENTRAL VALLEYS...

CITY           SKY/WX    TMP DP  RH WIND       PRES   REMARKS
GRAND JUNCTION CLOUDY    72  62  71 CALM      30.26F
MONTROSE       PTSUNNY   71  60  68 CALM      30.33F
EAGLE          LGT RAIN  61  57  88 CALM      30.40S
RIFLE          LGT RAIN  64  62  93 CALM      30.33F
DELTA          PTSUNNY   75  58  53 NE6       30.29F
NUCLA          PTSUNNY   72  57  60 SW3       30.35F
$$

COZ017>023-064>068-291900-
...SOUTHWEST COLORADO...

CITY           SKY/WX    TMP DP  RH WIND       PRES   REMARKS
DURANGO        MOSUNNY   72  53  51 NE3       30.36F
CORTEZ         SUNNY     75  58  55 SW8       30.31F
PAGOSA SPRINGS CLOUDY    66  53  63 SW8       30.43F
TELLURIDE      PTSUNNY   63  52  67 W6        30.51F
WOLF CREEK PAS NOT AVBL
$$

COZ009-010-012-014-032>034-037-058>063-291900-
...CENTRAL COLORADO...

CITY           SKY/WX    TMP DP  RH WIND       PRES   REMARKS
ASPEN          LGT RAIN  58  53  84 CALM      30.44S
BUENA VISTA    CLOUDY    64  50  60 SW3       30.42F
COPPER MTN     CLOUDY    54  46  76 W8        30.69S
BERTHOUD PASS  CLOUDY    45  32  61 E9        30.73F
COTTONWOOD PAS LGT RAIN  59  52  77 SE3       30.54F
GUNNISON       PTSUNNY   64  52  63 CALM      30.45F
KREMMLING      CLOUDY    70  48  46 W13       30.38F
LEADVILLE      CLOUDY    55  48  77 N5        30.53F
MONARCH PASS   CLOUDY    50  45  81 SW15G23   30.78F
SALIDA         CLOUDY    71  53  53 N5        30.45F
SUNLIGHT       LGT RAIN  50  50 100 CALM      30.63F VSB 1/4
WILKERSON PASS DRIZZLE   50  45  81 CALM      30.66F
$$

COZ069>075-291900-
...SAN LUIS VALLEY/SANGRE DE CRISTO MOUNTAINS...

CITY           SKY/WX    TMP DP  RH WIND       PRES   REMARKS
ALAMOSA        PTSUNNY   67  54  63 VRB3      30.40F
LA VETA PASS   PTSUNNY   59  52  77 SW7G16    30.56F
SAGUACHE       PTSUNNY   64  54  68 S5        30.42F
$$

COZ035-036-038>040-291900-
...NORTHERN COLORADO FRONT RANGE...

CITY           SKY/WX    TMP DP  RH WIND       PRES   REMARKS
DENVER INTL AP PTSUNNY   79  56  45 SE7       30.23F
DMNS CITY PARK   N/A     81  55  40 SE7       30.21F
AURORA         PTSUNNY   77  58  50 S6        30.25F
FRONT RANGE AP NOT AVBL
ERIE MUNI ARPT MOSUNNY   80  55  42 NE3       30.21F
BOULDER MUN AP PTSUNNY   79  54  41 E8        30.22F
CENTENNIAL     PTSUNNY   77  54  44 NE5       30.26F
BROOMFIELD     PTSUNNY   81  55  41 E8        30.25F
FORT COLLINS   MOSUNNY   81  59  47 E13G20    30.22F
LONGMONT       MOSUNNY   83  57  40 N6        30.22F
$$

COZ041-046-047-076>085-087-088-291900-
...PIKES PEAK/PALMER DIVIDE AND SOUTHERN FOOTHILLS...

CITY           SKY/WX    TMP DP  RH WIND       PRES   REMARKS
COLO. SPRINGS  PTSUNNY   74  55  51 CALM      30.30F
A. F. ACADEMY  MOSUNNY   73  56  56 S8        30.30F
ELLICOTT       PTSUNNY   73  59  61 VRB3      30.27F
FALCON         PTSUNNY   73  53  48 S3        30.34F
FORT CARSON    PTSUNNY   74  58  57 VRB1      30.27F THUNDER
LIMON          MOSUNNY   79  53  40 E9        30.23F
MONUMENT HILL  PTSUNNY   70  52  52 CALM      30.33F
TRINIDAD       PTSUNNY   76  55  48 VRB6      30.25F
$$

COZ042>045-048>051-090-091-291900-
...NORTHEAST COLORADO...

CITY           SKY/WX    TMP DP  RH WIND       PRES   REMARKS
GREELEY ARPT   SUNNY     82  59  44 SE12G17   30.21F
AKRON          SUNNY     81  56  42 SE12G22   30.22F
BURLINGTON     MOSUNNY   80  63  55 SE10G21   30.21F
WRAY             N/A     85  60  43 E13G18    30.19F
STERLING       MOSUNNY   84  63  48 E7        30.19F
HOLYOKE        MOSUNNY   79  61  53 SE10G20   30.21F
FORT MORGAN    SUNNY     83  54  36 E12G18    30.21F
$$

COZ086-089-092>099-291900-
...SOUTHEAST COLORADO...

CITY           SKY/WX    TMP DP  RH WIND       PRES   REMARKS
PUEBLO         PTSUNNY   76  62  62 SE5       30.19F
LA JUNTA       PTSUNNY   78  62  57 VRB3      30.17F
LAMAR          PTSUNNY   82  62  50 E5        30.13F
SPRINGFIELD      N/A     78  62  57 SW12G18   30.19F
$$


USA.gov is the U.S. government's official web portal to all federal, state and local government web resources and services.